Airfield :
LOGIN :

Register | Disclaimer

   EN    FR    IT 

 










Legend :    VFR   Marginal VFR   IFR   Intensive IFR   Very Intensive IFR
Visi :
Ceiling :
>= 8 km
>= 3000ft
5 to 8 km
1000 to 3000 ft
1500m to 5 km
500 to 1000 ft
800 to 1500m
200 to 500 ft
< 800m
< 200 ft
Symbols :   Thunderstorms  Fog  Heavy snow  Heavy precipitations  Wind > 20 kt
SIGMETs :     Misc.  Thunderstorms  Icing  Turbulence  Mountain Waves  Volcanic Ashes







- Airport Elevation : 238 ft
- IATA code : FAB
- Download approach charts


EGLF - Farnborough

CURRENT METAR :
  • 262020Z 22007KT 9999 FEW042 09/05 Q1015

EXPIRED METARs :
  • 261950Z 21009KT 9999 FEW042 08/05 Q1016
  • 261920Z 20010KT 9999 FEW042 09/06 Q1015
  • 261850Z 21011KT 9999 FEW045 10/06 Q1015
  • 261750Z 21011KT 9999 SCT045 11/06 Q1016

TAF TAF EGLF
Valid from the 26 at 18:00 until the 26 at 21:00 UTC


261704Z 2618/2621 25014KT 9999 SCT030
PROB30
TEMPO 2618/2620 8000 -SHRA
ATIS : +44 09063 800 400 (*282)
No reported NOTAMs for that airfield.



MET'MAP, your aeronautical weather chart ! - Copyright ORBIFLY December 2007 - Disclaimer

ORBIFLY MET'MAP TEAM :

Programming & Development : Alexandra Zaïnal
Concept & Development : Baudouin d'Aumeries
Co-Development & Prog : Marc-Olivier Méhu
Technical & hardware support : Manuel Goepfert

Contact : metmap@orbifly.com




SOURCES & CREDITS :

   NOAA